This is the latest recevied weather packets stored in our database for station/object K6TTR. If no packets are shown the sender has not sent any weather packets the latest 10 day(s).
| Time | Temp. | Humidity | Pressure | Rain* | Wind** | Luminosity | Snow |
|---|---|---|---|---|---|---|---|
| 1777419216 | 14.44° C | 40% | 1019 hPa | 0 mm | - | 329 W/m² | - |
| 1777418920 | 14.44° C | 38% | 1019 hPa | 0 mm | - | 279 W/m² | - |
| 1777418627 | 14.44° C | 38% | 1018.8 hPa | 0 mm | - | 309 W/m² | - |
| 1777418313 | 14.44° C | 38% | 1018.7 hPa | 0 mm | - | 599 W/m² | - |
| 1777418017 | 14.44° C | 39% | 1018.8 hPa | 0 mm | - | 552 W/m² | - |
| 1777417724 | 13.89° C | 42% | 1018.8 hPa | 0 mm | - | 598 W/m² | - |
| 1777417414 | 13.89° C | 42% | 1018.9 hPa | 0 mm | - | 554 W/m² | - |
| 1777417118 | 13.33° C | 43% | 1018.9 hPa | 0 mm | - | 613 W/m² | - |
| 1777416825 | 13.33° C | 42% | 1018.9 hPa | 0 mm | - | 257 W/m² | - |
| 1777416530 | 13.33° C | 42% | 1019 hPa | 0 mm | - | 185 W/m² | - |
| 1777416214 | 13.33° C | 42% | 1019.1 hPa | 0 mm | - | 227 W/m² | - |
| 1777415918 | 13.89° C | 44% | 1019.1 hPa | 0 mm | - | 726 W/m² | - |
| 1777415623 | 13.33° C | 45% | 1019.2 hPa | 0 mm | - | 613 W/m² | - |
| 1777415327 | 13.33° C | 45% | 1019.2 hPa | 0 mm | - | 135 W/m² | - |
| 1777415013 | 13.89° C | 43% | 1019.2 hPa | 0 mm | - | 132 W/m² | - |
| 1777414718 | 13.89° C | 40% | 1019.2 hPa | 0 mm | - | 139 W/m² | - |
| 1777414422 | 13.89° C | 39% | 1019.2 hPa | 0 mm | - | 155 W/m² | - |
| 1777414127 | 14.44° C | 37% | 1019.2 hPa | 0 mm | - | 188 W/m² | - |
| 1777413813 | 15° C | 38% | 1019.3 hPa | 0 mm | - | 204 W/m² | - |
| 1777413519 | 15° C | 34% | 1019.2 hPa | 0 mm | - | 220 W/m² | - |
| 1777413223 | 14.44° C | 35% | 1019.2 hPa | 0 mm | - | 1102 W/m² | - |
| 1777412929 | 14.44° C | 36% | 1019.2 hPa | 0 mm | - | 526 W/m² | - |
| 1777412614 | 14.44° C | 39% | 1019.3 hPa | 0 mm | - | 921 W/m² | - |
| 1777412318 | 14.44° C | 39% | 1019.5 hPa | 0 mm | - | 758 W/m² | - |
| 1777412023 | 14.44° C | 40% | 1019.5 hPa | 0 mm | - | 870 W/m² | - |
* Rain latest hour (hover to see other rain measurements)
** Current wind speed in m/s (hover to see current wind gust speed)